Ballina Observation History
Time Wind Speed Temp Pressure Rel. Hum Rain
12/09:30pm NNE 6-8 kts 24.9°c 1011.7 hPa 89% 0.0mm
12/09:00pm NNE 5-8 kts 24.9°c 1011.8 hPa 89% 0.0mm
12/08:30pm NNE 7-13 kts 24.9°c 1011.0 hPa 89% 0.0mm
12/08:00pm ENE 5-7 kts 25.1°c 1010.8 hPa 86% 0.0mm
12/07:30pm NE 5-7 kts 25.2°c 1010.6 hPa 83% 0.0mm
12/07:00pm ENE 6-8 kts 25.3°c 1010.8 hPa 81% 0.0mm
12/06:30pm ENE 7-9 kts 25.6°c 1010.1 hPa 80% 0.0mm
12/06:00pm E 8-11 kts 26.0°c 1008.8 hPa 78% 0.0mm
12/05:30pm E 9-12 kts 26.6°c 1009.0 hPa 79% 0.0mm
12/05:06pm E 9-14 kts 25.9°c 1009.0 hPa 84% 0.0mm
12/05:00pm ESE 11-15 kts 25.5°c 1009.1 hPa 83% 0.0mm
12/04:30pm SE 11-16 kts 26.0°c 1009.6 hPa 81% 0.0mm
12/04:00pm SSE 11-15 kts 26.4°c 1009.9 hPa 81% 0.0mm
12/03:51pm SSE 11-15 kts 26.9°c 1009.9 hPa 80% 0.0mm
12/03:30pm SSE 11-14 kts 27.3°c 1010.0 hPa 77% 0.0mm
12/03:00pm SSE 13-17 kts 26.6°c 1010.1 hPa 79% 0.0mm
12/02:30pm SSE 13-17 kts 26.4°c 1010.4 hPa 77% 0.0mm
12/02:00pm SSE 13-15 kts 26.8°c 1010.2 hPa 77% 0.0mm
12/01:30pm SSE 11-14 kts 26.4°c 1010.5 hPa 79% 0.0mm
12/01:00pm SE 12-16 kts 26.4°c 1010.8 hPa 76% 0.0mm
12/12:30pm SSE 14-17 kts 26.6°c 1011.2 hPa 73% 0.0mm
12/12:00pm S 13-19 kts 26.7°c 1011.4 hPa 71% 0.0mm
12/11:30am SSE 15-18 kts 26.4°c 1011.6 hPa 75% 0.0mm
12/11:00am S 13-16 kts 26.4°c 1011.7 hPa 74% 0.0mm
12/10:30am S 12-16 kts 26.0°c 1011.7 hPa 77% 0.0mm
12/10:00am S 13-18 kts 26.5°c 1011.6 hPa 77% 0.0mm
12/09:30am SSW 8-10 kts 27.4°c 1011.4 hPa 66% 0.0mm
12/09:00am NNW 5-7 kts 27.7°c 1011.4 hPa 54% 1.2mm
12/08:30am NNW 5-7 kts 26.1°c 1011.1 hPa 64% 1.2mm
12/08:00am NNW 6-8 kts 24.6°c 1010.9 hPa 71% 1.2mm
12/07:30am NNW 7-10 kts 22.9°c 1010.7 hPa 77% 1.2mm
12/07:00am N 2-3 kts 20.6°c 1010.5 hPa 89% 1.2mm
12/06:30am WNW 3-4 kts 19.4°c 1010.0 hPa 94% 1.2mm
12/06:00am NNE 4-6 kts 19.3°c 1009.8 hPa 96% 1.2mm
12/05:30am NW 4-5 kts 19.6°c 1009.4 hPa 93% 1.2mm
12/05:00am CALM 0-3 kts 19.4°c 1009.3 hPa 92% 1.2mm
12/04:30am NNW 2-5 kts 20.1°c 1008.7 hPa 88% 1.2mm
12/04:00am NW 7-9 kts 21.2°c 1008.6 hPa 86% 1.2mm
12/03:30am NW 6-8 kts 21.5°c 1008.1 hPa 89% 1.2mm
12/03:00am WSW 6-8 kts 21.7°c 1008.0 hPa 85% 1.2mm
12/02:30am SSW 8-11 kts 22.4°c 1008.8 hPa 79% 1.2mm
12/02:00am S 10-15 kts 23.2°c 1008.7 hPa 75% 1.2mm
12/01:32am SE 15-26 kts 23.9°c 1008.0 hPa 69% 1.2mm
12/01:30am SE 13-23 kts 23.8°c 1007.8 hPa 68% 1.2mm
12/01:00am W 15-21 kts 26.2°c 1007.7 hPa 52% 1.2mm
12/12:30am NNW 19-26 kts 23.7°c 1008.3 hPa 69% 1.2mm
12/12:24am NW 19-25 kts 22.8°c 1009.8 hPa 73% 1.2mm
12/12:00am NW 22-29 kts 21.7°c 1011.8 hPa 82% 1.2mm
Time Wind Speed Temp Pressure Rel. Hum Rain
11/11:30pm NW 17-31 kts 21.8°c 1013.1 hPa 89% 0.8mm
11/11:28pm NW 16-26 kts 21.9°c 1013.4 hPa 88% 0.6mm
11/11:00pm WNW 12-17 kts 23.0°c 1015.0 hPa 87% 0.4mm
11/10:30pm WNW 9-11 kts 23.8°c 1015.4 hPa 93% 0.0mm
11/10:25pm W 8-11 kts 23.9°c 1015.4 hPa 94% 0.0mm
11/10:00pm W 5-8 kts 24.3°c 1015.3 hPa 91% 0.0mm
11/09:34pm SW 6-8 kts 24.3°c 1014.9 hPa 90% 0.0mm
11/09:30pm SW 5-7 kts 24.7°c 1014.9 hPa 91% 0.0mm
11/09:00pm E 5-7 kts 24.3°c 1014.2 hPa 91% 0.0mm
11/08:30pm ESE 6-8 kts 24.3°c 1013.3 hPa 90% 0.0mm
11/08:00pm NE 6-8 kts 25.0°c 1012.5 hPa 88% 0.0mm
11/07:30pm NNE 7-12 kts 25.2°c 1012.1 hPa 86% 0.0mm
11/07:00pm NNE 10-17 kts 25.4°c 1011.0 hPa 86% 0.0mm
11/06:30pm NNE 12-16 kts 25.4°c 1010.3 hPa 87% 0.0mm
11/06:00pm NNE 14-20 kts 25.7°c 1009.5 hPa 86% 0.0mm
11/05:46pm NE 16-22 kts 25.8°c 1009.2 hPa 86% 0.0mm
11/05:30pm NNE 16-24 kts 26.2°c 1009.1 hPa 85% 0.0mm
11/05:00pm NE 16-25 kts 26.9°c 1009.3 hPa 81% 0.0mm
11/04:30pm NE 19-24 kts 27.2°c 1009.3 hPa 80% 0.0mm
11/04:00pm NE 16-24 kts 27.4°c 1010.0 hPa 77% 0.0mm
11/03:30pm NE 16-21 kts 27.1°c 1010.5 hPa 79% 0.0mm
11/03:00pm NE 13-17 kts 28.3°c 1010.9 hPa 73% 0.0mm
11/02:30pm NE 11-17 kts 28.8°c 1011.3 hPa 70% 0.0mm
11/02:00pm E 8-12 kts 29.0°c 1011.5 hPa 66% 0.0mm
11/01:30pm ESE 8-11 kts 28.4°c 1012.0 hPa 61% 0.0mm
11/01:00pm SE 8-11 kts 28.4°c 1012.3 hPa 62% 0.0mm
11/12:30pm SE 9-12 kts 27.3°c 1012.6 hPa 67% 0.0mm
11/12:00pm SSE 10-15 kts 26.9°c 1012.9 hPa 64% 0.0mm
11/11:30am SE 9-13 kts 28.5°c 1012.8 hPa 65% 0.0mm
11/11:00am SSE 12-15 kts 28.2°c 1012.8 hPa 65% 0.0mm
11/10:30am SSE 3-5 kts 29.2°c 1012.9 hPa 53% 0.0mm
11/10:00am W 5-9 kts 28.0°c 1013.0 hPa 60% 0.0mm
11/09:30am N 9-13 kts 27.2°c 1011.9 hPa 66% 0.0mm
11/09:00am W 3-6 kts 26.0°c 1012.8 hPa 73% 0.2mm
11/08:30am WNW 8-12 kts 25.6°c 1013.2 hPa 79% 0.2mm
11/08:00am NNE 8-11 kts 24.8°c 1012.8 hPa 83% 0.2mm
11/07:30am NE 7-8 kts 24.0°c 1013.2 hPa 88% 0.2mm
11/07:00am NE 6-9 kts 23.0°c 1013.2 hPa 90% 0.2mm
11/06:30am NW 3-5 kts 22.4°c 1013.2 hPa 89% 0.2mm
11/06:00am WNW 4-5 kts 22.2°c 1012.9 hPa 91% 0.2mm
11/05:30am SW 3-6 kts 23.5°c 1012.8 hPa 87% 0.2mm
11/05:00am NNE 7-10 kts 24.0°c 1011.2 hPa 86% 0.2mm
11/04:30am NNE 7-11 kts 24.1°c 1010.7 hPa 85% 0.2mm
11/04:00am N 9-13 kts 24.2°c 1010.5 hPa 84% 0.2mm
11/03:30am N 12-17 kts 24.2°c 1010.3 hPa 82% 0.2mm
11/03:00am NNW 10-15 kts 24.4°c 1010.3 hPa 81% 0.2mm
11/02:30am NNE 11-14 kts 24.3°c 1010.0 hPa 79% 0.2mm
11/02:00am ENE 9-12 kts 23.9°c 1010.5 hPa 76% 0.2mm
11/01:30am NE 9-12 kts 24.0°c 1010.8 hPa 75% 0.2mm
11/01:00am E 9-14 kts 23.5°c 1010.8 hPa 76% 0.2mm
11/12:30am WSW 9-15 kts 24.1°c 1011.4 hPa 73% 0.2mm
11/12:00am N 13-20 kts 23.6°c 1012.8 hPa 82% 0.2mm
Time Wind Speed Temp Pressure Rel. Hum Rain
10/11:30pm NNW 7-8 kts 23.5°c 1014.7 hPa 88% 0.0mm
10/11:00pm NNW 3-4 kts 23.4°c 1015.1 hPa 92% 0.0mm
10/10:30pm CALM 0 kts 24.1°c 1015.6 hPa 88% 0.0mm
10/10:00pm NNW 5-9 kts 25.1°c 1014.7 hPa 79% 0.0mm
10/09:30pm N 12-20 kts 25.4°c 1013.6 hPa 78% 0.0mm
10/09:00pm N 14-21 kts 25.4°c 1012.5 hPa 76% 0.0mm
10/08:30pm NNE 15-21 kts 25.3°c 1012.2 hPa 75% 0.0mm
10/08:00pm NNE 15-21 kts 25.5°c 1012.0 hPa 75% 0.0mm
10/07:30pm NNE 14-21 kts 25.7°c 1012.0 hPa 75% 0.0mm
10/07:00pm NNE 15-22 kts 25.9°c 1011.7 hPa 76% 0.0mm
10/06:42pm NNE 15-25 kts 26.0°c 1011.1 hPa 76% 0.0mm
10/06:30pm NNE 15-21 kts 26.2°c 1011.1 hPa 75% 0.0mm
10/06:00pm NNE 14-23 kts 26.4°c 1011.2 hPa 75% 0.0mm
10/05:30pm NNE 15-22 kts 27.2°c 1010.9 hPa 72% 0.0mm
10/05:00pm NNE 17-24 kts 27.9°c 1010.9 hPa 67% 0.0mm
10/04:30pm NNE 16-22 kts 28.4°c 1011.2 hPa 65% 0.0mm
10/04:00pm NNE 19-27 kts 29.3°c 1011.5 hPa 64% 0.0mm
10/03:41pm NNE 15-25 kts 29.7°c 1011.9 hPa 63% 0.0mm
10/03:30pm NE 15-23 kts 29.0°c 1012.1 hPa 69% 0.0mm
10/03:00pm NE 19-24 kts 28.5°c 1012.5 hPa 71% 0.0mm
10/02:30pm NE 19-23 kts 29.4°c 1012.9 hPa 69% 0.0mm
10/02:00pm NE 18-23 kts 29.5°c 1013.4 hPa 69% 0.0mm
10/01:30pm NE 19-24 kts 28.7°c 1013.9 hPa 71% 0.0mm
10/01:00pm NE 18-22 kts 28.9°c 1014.3 hPa 72% 0.0mm
10/12:30pm NE 18-24 kts 28.9°c 1014.8 hPa 72% 0.0mm
10/12:00pm NE 17-22 kts 28.9°c 1015.3 hPa 71% 0.0mm
10/11:30am NE 13-17 kts 28.6°c 1016.0 hPa 71% 0.0mm
10/11:00am NE 12-15 kts 29.4°c 1016.6 hPa 70% 0.0mm
10/10:30am NNE 8-12 kts 28.8°c 1016.6 hPa 68% 0.0mm
10/10:00am NW 7-10 kts 28.1°c 1016.9 hPa 65% 0.0mm
10/09:30am NNW 7-10 kts 27.6°c 1017.1 hPa 65% 0.0mm
10/09:00am NW 5-7 kts 26.9°c 1017.3 hPa 69% 2.6mm
10/08:30am NNW 6-8 kts 26.0°c 1017.6 hPa 80% 2.6mm
10/08:00am NNW 6-9 kts 24.5°c 1017.5 hPa 88% 2.6mm
10/07:30am N 4-7 kts 23.5°c 1017.5 hPa 93% 2.6mm
10/07:00am N 3-5 kts 22.7°c 1017.3 hPa 96% 2.6mm
10/06:30am N 3-4 kts 22.3°c 1017.4 hPa 97% 2.6mm
10/06:00am NNE 4-5 kts 22.1°c 1017.3 hPa 97% 2.6mm
10/05:30am NNE 5-8 kts 22.2°c 1017.1 hPa 97% 2.6mm
10/05:00am N 3-5 kts 22.3°c 1017.1 hPa 97% 2.6mm
10/04:30am NNE 4-5 kts 22.6°c 1017.1 hPa 97% 2.6mm
10/04:00am NNE 3-5 kts 23.0°c 1017.1 hPa 96% 2.6mm
10/03:30am NNE 4-6 kts 23.1°c 1017.1 hPa 95% 2.6mm
10/03:00am NNE 5-7 kts 23.3°c 1017.2 hPa 94% 2.6mm
10/02:41am NNE 6-8 kts 23.6°c 1017.3 hPa 93% 2.6mm
10/02:30am NNE 7-10 kts 23.7°c 1017.4 hPa 93% 2.6mm
10/02:06am NNE 7-10 kts 23.9°c 1017.7 hPa 93% 2.6mm
10/02:04am NNE 7-10 kts 23.9°c 1017.7 hPa 93% 2.6mm
10/02:00am NNE 8-11 kts 23.9°c 1017.8 hPa 93% 2.6mm
10/01:30am NNE 8-13 kts 23.9°c 1018.1 hPa 93% 2.6mm
10/01:20am NNE 8-11 kts 23.9°c 1018.2 hPa 93% 2.6mm
10/01:10am NE 8-11 kts 23.8°c 1018.2 hPa 93% 2.6mm
10/01:00am NNE 9-11 kts 23.8°c 1018.3 hPa 93% 2.6mm
10/12:39am NNE 9-12 kts 23.9°c 1018.6 hPa 92% 2.6mm
10/12:30am NNE 8-12 kts 23.9°c 1018.7 hPa 92% 2.6mm
10/12:23am NE 8-11 kts 23.8°c 1018.8 hPa 92% 2.6mm
10/12:00am NNE 8-11 kts 23.8°c 1019.1 hPa 91% 2.6mm